Location: New Mesquite
(33.1168°N, 96.4336°W)
Time: 22:18:14
(UTC+00:00)

Meteor 1-27 Rocket - Pass Details

Date: 08 July 2022
Orbit: 829 x 911 km, 81.3° (Epoch: 16 August)

Event Time Altitude Azimuth Distance (km) Brightness Sun altitude
Rises 07:04:56 0° 15° (NNE) 3,402 7.9 -33.8°
Reaches altitude 10° 07:08:48 10° 41° (NE) 2,450 6.7 -33.7°
Maximum altitude 07:11:24 13° 70° (ENE) 2,209 6.2 -33.6°
Enters shadow 07:12:59 12° 88° (E) 2,294 6.1 -33.5°
